BAW826 EGLL-EIDW

Flight info

Callsign BAW826
Flight time 0h 53m
Altitude 32000
Route CPT L9 DIDZA N14 BIBPE DCT OKTAD DCT MEDOG DCT KRAGY DCT PEMOB DCT LEMGU M17 VATRY VATRY4L
Aircraft A320/M-SDE3FGHIRWY/LB1

Departure

Time 2026-05-08 07:01
Airport London Heathrow Airport (EGLL)

Arrival

Time 2026-05-08 07:54
Airport Dublin Airport (EIDW)
Time Latitude Longitude Altitude Speed Heading
2026-05-08 06:34 51.47115 -0.48005 91 ft 0 kts 273°
2026-05-08 06:54 51.47115 -0.47989 86 ft 4 kts 273°
2026-05-08 06:54 51.47113 -0.47946 86 ft 4 kts 273°
2026-05-08 06:54 51.47112 -0.47911 86 ft 4 kts 264°
2026-05-08 06:55 51.47121 -0.47877 86 ft 4 kts 209°
2026-05-08 06:55 51.47143 -0.47870 86 ft 4 kts 180°
2026-05-08 06:55 51.47154 -0.47870 88 ft 0 kts 180°
2026-05-08 06:57 51.47150 -0.47870 89 ft 3 kts 179°
2026-05-08 06:57 51.47074 -0.47868 86 ft 14 kts 179°
2026-05-08 06:57 51.46968 -0.47866 86 ft 17 kts 179°
2026-05-08 06:58 51.46845 -0.47864 91 ft 18 kts 179°
2026-05-08 06:58 51.46717 -0.47864 90 ft 17 kts 182°
2026-05-08 06:58 51.46653 -0.47978 86 ft 16 kts 270°
2026-05-08 06:58 51.46648 -0.48162 86 ft 14 kts 250°
2026-05-08 06:59 51.46564 -0.48212 87 ft 14 kts 179°
2026-05-08 06:59 51.46486 -0.48184 91 ft 6 kts 129°
2026-05-08 06:59 51.46480 -0.48101 87 ft 0 kts 88°
2026-05-08 07:00 51.46481 -0.48013 87 ft 33 kts 89°
2026-05-08 07:00 51.46483 -0.47262 87 ft 98 kts 90°
2026-05-08 07:00 51.46487 -0.45896 90 ft 144 kts 90°
2026-05-08 07:01 51.46457 -0.44158 412 ft 160 kts 93°
2026-05-08 07:01 51.46379 -0.42350 933 ft 170 kts 94°
2026-05-08 07:01 51.46197 -0.40346 1309 ft 194 kts 108°
2026-05-08 07:01 51.45578 -0.38310 1738 ft 215 kts 129°
2026-05-08 07:02 51.44411 -0.36639 2184 ft 237 kts 151°
2026-05-08 07:02 51.42812 -0.35818 2945 ft 247 kts 174°
2026-05-08 07:02 51.41089 -0.36080 3840 ft 254 kts 197°
2026-05-08 07:02 51.39529 -0.37470 4667 ft 264 kts 220°
2026-05-08 07:03 51.38449 -0.39835 4950 ft 267 kts 246°
2026-05-08 07:03 51.38131 -0.42754 5024 ft 270 kts 272°
2026-05-08 07:03 51.38540 -0.45688 5031 ft 271 kts 285°
2026-05-08 07:03 51.39072 -0.48584 5039 ft 271 kts 285°
2026-05-08 07:04 51.39595 -0.51492 5037 ft 272 kts 284°
2026-05-08 07:04 51.40115 -0.54417 5209 ft 277 kts 284°
2026-05-08 07:04 51.40642 -0.57395 5844 ft 278 kts 284°
2026-05-08 07:04 51.41166 -0.60366 6003 ft 276 kts 284°
2026-05-08 07:05 51.41685 -0.63317 6035 ft 275 kts 284°
2026-05-08 07:05 51.42201 -0.66263 6050 ft 274 kts 284°
2026-05-08 07:05 51.42715 -0.69210 6093 ft 275 kts 284°
2026-05-08 07:05 51.43231 -0.72168 6103 ft 275 kts 284°
2026-05-08 07:06 51.43718 -0.75086 6103 ft 275 kts 282°
2026-05-08 07:06 51.44128 -0.78112 6098 ft 274 kts 280°
2026-05-08 07:06 51.44488 -0.81070 6096 ft 274 kts 279°
2026-05-08 07:06 51.44844 -0.84071 6096 ft 274 kts 279°
2026-05-08 07:07 51.45198 -0.87071 6094 ft 274 kts 279°
2026-05-08 07:07 51.45549 -0.90075 6094 ft 274 kts 279°
2026-05-08 07:07 51.45891 -0.93080 6092 ft 274 kts 278°
2026-05-08 07:07 51.46231 -0.96091 6088 ft 274 kts 278°
2026-05-08 07:08 51.46571 -0.99098 6085 ft 274 kts 278°
2026-05-08 07:08 51.46912 -1.02104 6083 ft 274 kts 278°
2026-05-08 07:08 51.47255 -1.05112 6083 ft 274 kts 278°
2026-05-08 07:08 51.47600 -1.08126 6084 ft 275 kts 278°
2026-05-08 07:09 51.47941 -1.11139 6083 ft 275 kts 278°
2026-05-08 07:09 51.48281 -1.14148 6083 ft 274 kts 278°
2026-05-08 07:09 51.48622 -1.17163 6082 ft 274 kts 278°
2026-05-08 07:09 51.49060 -1.20141 6080 ft 276 kts 288°
2026-05-08 07:10 51.49954 -1.22878 6130 ft 281 kts 305°
2026-05-08 07:10 51.51318 -1.25169 6925 ft 285 kts 316°
2026-05-08 07:10 51.52771 -1.27334 7883 ft 285 kts 315°
2026-05-08 07:10 51.54218 -1.29532 8794 ft 288 kts 314°
2026-05-08 07:11 51.55671 -1.31758 9685 ft 291 kts 313°
2026-05-08 07:11 51.57149 -1.34023 10377 ft 300 kts 313°
2026-05-08 07:11 51.58717 -1.36430 10620 ft 323 kts 314°
2026-05-08 07:11 51.60324 -1.39069 11034 ft 335 kts 307°
2026-05-08 07:12 51.61643 -1.42174 11700 ft 337 kts 296°
2026-05-08 07:12 51.62757 -1.45515 12409 ft 341 kts 296°
2026-05-08 07:12 51.63886 -1.48901 13075 ft 346 kts 296°
2026-05-08 07:12 51.65031 -1.52332 13798 ft 349 kts 296°
2026-05-08 07:13 51.66185 -1.55799 14427 ft 353 kts 296°
2026-05-08 07:13 51.67346 -1.59298 15042 ft 356 kts 296°
2026-05-08 07:13 51.68521 -1.62831 15678 ft 359 kts 296°
2026-05-08 07:13 51.69676 -1.66419 16265 ft 361 kts 291°
2026-05-08 07:14 51.70481 -1.70255 16854 ft 362 kts 281°
2026-05-08 07:14 51.70852 -1.74271 17457 ft 364 kts 274°
2026-05-08 07:14 51.71134 -1.78340 18069 ft 367 kts 274°
2026-05-08 07:14 51.71422 -1.82439 18633 ft 370 kts 274°
2026-05-08 07:15 51.71819 -1.86558 19154 ft 374 kts 281°
2026-05-08 07:15 51.72441 -1.90653 19725 ft 378 kts 282°
2026-05-08 07:15 51.73065 -1.94788 20288 ft 380 kts 282°
2026-05-08 07:15 51.73678 -1.98890 20821 ft 383 kts 282°
2026-05-08 07:16 51.74303 -2.03086 21334 ft 386 kts 282°
2026-05-08 07:16 51.74939 -2.07369 21840 ft 389 kts 282°
2026-05-08 07:16 51.75560 -2.11574 22333 ft 392 kts 282°
2026-05-08 07:16 51.76188 -2.15867 22821 ft 395 kts 282°
2026-05-08 07:17 51.76815 -2.20198 23306 ft 398 kts 282°
2026-05-08 07:17 51.77446 -2.24560 23753 ft 401 kts 282°
2026-05-08 07:17 51.78087 -2.28959 24172 ft 403 kts 282°
2026-05-08 07:17 51.78729 -2.33367 24624 ft 404 kts 282°
2026-05-08 07:18 51.79373 -2.37793 25071 ft 405 kts 283°
2026-05-08 07:18 51.80018 -2.42231 25499 ft 407 kts 283°
2026-05-08 07:18 51.80661 -2.46681 25952 ft 407 kts 283°
2026-05-08 07:18 51.81301 -2.51141 26418 ft 408 kts 283°
2026-05-08 07:19 51.81940 -2.55617 26822 ft 409 kts 283°
2026-05-08 07:19 51.82569 -2.60112 27234 ft 411 kts 283°
2026-05-08 07:19 51.83184 -2.64631 27643 ft 412 kts 283°
2026-05-08 07:19 51.83792 -2.69164 28067 ft 414 kts 283°
2026-05-08 07:20 51.84400 -2.73723 28464 ft 415 kts 283°
2026-05-08 07:20 51.85008 -2.78299 28885 ft 417 kts 283°
2026-05-08 07:20 51.85620 -2.82895 29307 ft 419 kts 284°
2026-05-08 07:20 51.86235 -2.87502 29720 ft 420 kts 284°
2026-05-08 07:21 51.86853 -2.92134 30107 ft 422 kts 284°
2026-05-08 07:21 51.87470 -2.96775 30504 ft 422 kts 283°
2026-05-08 07:21 51.88086 -3.01404 31017 ft 419 kts 283°
2026-05-08 07:21 51.88695 -3.05985 31594 ft 414 kts 283°
2026-05-08 07:22 51.89297 -3.10536 31986 ft 412 kts 283°
2026-05-08 07:22 51.89893 -3.15053 32062 ft 407 kts 283°
2026-05-08 07:22 51.91046 -3.23905 32069 ft 399 kts 283°
2026-05-08 07:23 51.92182 -3.32686 32060 ft 398 kts 283°
2026-05-08 07:23 51.93314 -3.41465 32057 ft 398 kts 283°
2026-05-08 07:24 51.94439 -3.50209 32054 ft 395 kts 282°
2026-05-08 07:24 51.95548 -3.58921 32052 ft 395 kts 282°
2026-05-08 07:25 51.96651 -3.67614 32064 ft 395 kts 282°
2026-05-08 07:26 51.98297 -3.80640 32058 ft 395 kts 282°
2026-05-08 07:26 51.99384 -3.89371 32075 ft 395 kts 282°
2026-05-08 07:27 52.00456 -3.98106 32070 ft 395 kts 281°
2026-05-08 07:27 52.01526 -4.06833 32068 ft 394 kts 281°
2026-05-08 07:28 52.02597 -4.15548 32074 ft 394 kts 281°
2026-05-08 07:28 52.03650 -4.24267 32074 ft 393 kts 281°
2026-05-08 07:29 52.04697 -4.32986 32072 ft 393 kts 281°
2026-05-08 07:29 52.05746 -4.41700 32072 ft 393 kts 280°
2026-05-08 07:30 52.06787 -4.50414 32071 ft 392 kts 280°
2026-05-08 07:30 52.07817 -4.59119 32072 ft 392 kts 280°
2026-05-08 07:31 52.08838 -4.67821 32067 ft 392 kts 279°
2026-05-08 07:31 52.09852 -4.76517 31786 ft 390 kts 279°
2026-05-08 07:31 52.10353 -4.80815 31389 ft 384 kts 279°
2026-05-08 07:32 52.10843 -4.85054 30927 ft 380 kts 279°
2026-05-08 07:32 52.11324 -4.89260 30463 ft 376 kts 279°
2026-05-08 07:32 52.11800 -4.93434 29945 ft 374 kts 279°
2026-05-08 07:32 52.12275 -4.97581 29398 ft 371 kts 279°
2026-05-08 07:33 52.12744 -5.01698 28889 ft 368 kts 279°
2026-05-08 07:33 52.13208 -5.05778 28384 ft 366 kts 279°
2026-05-08 07:33 52.13809 -5.09790 27886 ft 365 kts 288°
2026-05-08 07:33 52.14912 -5.13508 27390 ft 367 kts 300°
2026-05-08 07:34 52.16499 -5.16767 26905 ft 369 kts 312°
2026-05-08 07:34 52.17784 -5.18591 26607 ft 372 kts 320°
2026-05-08 07:34 52.20025 -5.20754 26115 ft 376 kts 329°
2026-05-08 07:34 52.22368 -5.22651 25649 ft 375 kts 329°
2026-05-08 07:35 52.24697 -5.24552 25177 ft 374 kts 329°
2026-05-08 07:35 52.27018 -5.26457 24733 ft 373 kts 329°
2026-05-08 07:35 52.29329 -5.28359 24279 ft 372 kts 330°
2026-05-08 07:35 52.31632 -5.30263 23821 ft 371 kts 330°
2026-05-08 07:36 52.33935 -5.32167 23331 ft 370 kts 330°
2026-05-08 07:36 52.36228 -5.34060 22826 ft 368 kts 330°
2026-05-08 07:36 52.38501 -5.35934 22372 ft 365 kts 330°
2026-05-08 07:36 52.40760 -5.37796 21899 ft 363 kts 330°
2026-05-08 07:37 52.43007 -5.39649 21420 ft 361 kts 330°
2026-05-08 07:37 52.45243 -5.41496 20941 ft 359 kts 330°
2026-05-08 07:37 52.47470 -5.43338 20465 ft 358 kts 330°
2026-05-08 07:37 52.49691 -5.45180 19976 ft 357 kts 330°
2026-05-08 07:38 52.51908 -5.47027 19480 ft 357 kts 330°
2026-05-08 07:38 52.54120 -5.48876 18996 ft 357 kts 330°
2026-05-08 07:38 52.56404 -5.50488 18496 ft 359 kts 340°
2026-05-08 07:38 52.58792 -5.51709 17959 ft 359 kts 341°
2026-05-08 07:39 52.61178 -5.52928 17442 ft 357 kts 341°
2026-05-08 07:39 52.63546 -5.54140 16941 ft 355 kts 341°
2026-05-08 07:39 52.65900 -5.55349 16445 ft 354 kts 341°
2026-05-08 07:39 52.68241 -5.56555 15944 ft 352 kts 341°
2026-05-08 07:40 52.70574 -5.57760 15465 ft 350 kts 341°
2026-05-08 07:40 52.72894 -5.58962 14961 ft 349 kts 341°
2026-05-08 07:40 52.75212 -5.60103 14564 ft 345 kts 347°
2026-05-08 07:40 52.77529 -5.60792 14484 ft 331 kts 349°
2026-05-08 07:41 52.79757 -5.61427 14418 ft 319 kts 349°
2026-05-08 07:41 52.81909 -5.62033 14342 ft 310 kts 349°
2026-05-08 07:41 52.84083 -5.62647 14179 ft 327 kts 349°
2026-05-08 07:41 52.86359 -5.63290 13939 ft 337 kts 349°
2026-05-08 07:42 52.88702 -5.63952 13683 ft 344 kts 349°
2026-05-08 07:42 52.91061 -5.64621 13411 ft 344 kts 349°
2026-05-08 07:42 52.93420 -5.65291 13142 ft 343 kts 349°
2026-05-08 07:42 52.95771 -5.65957 12874 ft 342 kts 349°
2026-05-08 07:43 52.98116 -5.66621 12606 ft 342 kts 349°
2026-05-08 07:43 53.00456 -5.67281 12348 ft 341 kts 349°
2026-05-08 07:43 53.02787 -5.67938 12088 ft 340 kts 349°
2026-05-08 07:43 53.05114 -5.68599 11830 ft 339 kts 349°
2026-05-08 07:44 53.07435 -5.69262 11570 ft 338 kts 349°
2026-05-08 07:44 53.09748 -5.69922 11320 ft 337 kts 349°
2026-05-08 07:44 53.12053 -5.70582 11070 ft 336 kts 348°
2026-05-08 07:44 53.14357 -5.71246 10819 ft 335 kts 348°
2026-05-08 07:45 53.16651 -5.71908 10573 ft 335 kts 348°
2026-05-08 07:45 53.18942 -5.72566 10332 ft 333 kts 348°
2026-05-08 07:45 53.21225 -5.73224 10077 ft 333 kts 348°
2026-05-08 07:45 53.23496 -5.73876 9901 ft 327 kts 348°
2026-05-08 07:46 53.25695 -5.74501 9759 ft 315 kts 348°
2026-05-08 07:46 53.27823 -5.75108 9619 ft 305 kts 348°
2026-05-08 07:46 53.29882 -5.75697 9097 ft 298 kts 348°
2026-05-08 07:46 53.31916 -5.76283 8467 ft 295 kts 348°
2026-05-08 07:47 53.33926 -5.76863 7873 ft 291 kts 348°
2026-05-08 07:47 53.35891 -5.77433 7300 ft 288 kts 348°
2026-05-08 07:47 53.37873 -5.78009 6794 ft 283 kts 348°
2026-05-08 07:47 53.39773 -5.78562 6294 ft 279 kts 348°
2026-05-08 07:48 53.41660 -5.79120 6027 ft 270 kts 346°
2026-05-08 07:48 53.43315 -5.80365 5893 ft 257 kts 317°
2026-05-08 07:48 53.44323 -5.82704 5759 ft 243 kts 287°
2026-05-08 07:48 53.44536 -5.85439 5404 ft 240 kts 259°
2026-05-08 07:49 53.43934 -5.87988 5080 ft 233 kts 232°
2026-05-08 07:49 53.42864 -5.90008 4481 ft 233 kts 226°
2026-05-08 07:49 53.41754 -5.91984 4054 ft 229 kts 226°
2026-05-08 07:49 53.40815 -5.94026 3854 ft 215 kts 244°
2026-05-08 07:50 53.40434 -5.96428 3615 ft 215 kts 268°
2026-05-08 07:50 53.40541 -5.98880 3333 ft 207 kts 274°
2026-05-08 07:50 53.40678 -6.01196 3095 ft 194 kts 274°
2026-05-08 07:50 53.40804 -6.03373 2822 ft 180 kts 274°
2026-05-08 07:51 53.40919 -6.05365 2616 ft 161 kts 274°
2026-05-08 07:51 53.41020 -6.07143 2384 ft 148 kts 274°
2026-05-08 07:51 53.41116 -6.08832 2183 ft 144 kts 274°
2026-05-08 07:51 53.41209 -6.10484 1989 ft 142 kts 274°
2026-05-08 07:52 53.41302 -6.12124 1795 ft 141 kts 274°
2026-05-08 07:52 53.41394 -6.13755 1601 ft 140 kts 274°
2026-05-08 07:52 53.41485 -6.15381 1405 ft 140 kts 274°
2026-05-08 07:52 53.41576 -6.17002 1213 ft 140 kts 274°
2026-05-08 07:53 53.41667 -6.18621 1019 ft 139 kts 274°
2026-05-08 07:53 53.41757 -6.20232 829 ft 138 kts 276°
2026-05-08 07:53 53.41846 -6.21836 641 ft 138 kts 276°
2026-05-08 07:53 53.41934 -6.23436 450 ft 138 kts 276°
2026-05-08 07:54 53.42024 -6.25030 259 ft 136 kts 277°
2026-05-08 07:54 53.42114 -6.26560 213 ft 121 kts 276°
2026-05-08 07:54 53.42166 -6.27518 215 ft 39 kts 275°
2026-05-08 07:54 53.42195 -6.27812 216 ft 24 kts 290°
2026-05-08 07:55 53.42263 -6.28035 213 ft 15 kts 301°
2026-05-08 07:55 53.42301 -6.28104 211 ft 0 kts 337°
2026-05-08 07:56 53.42341 -6.28107 211 ft 11 kts 22°
2026-05-08 07:56 53.42360 -6.27965 211 ft 15 kts 90°
2026-05-08 07:57 53.42349 -6.27777 218 ft 18 kts 95°
2026-05-08 07:57 53.42338 -6.27577 215 ft 18 kts 95°
2026-05-08 07:57 53.42325 -6.27346 211 ft 21 kts 95°
2026-05-08 07:57 53.42312 -6.27111 211 ft 20 kts 95°
2026-05-08 07:58 53.42301 -6.26922 211 ft 17 kts 95°
2026-05-08 07:58 53.42290 -6.26710 211 ft 20 kts 95°
2026-05-08 07:58 53.42278 -6.26498 219 ft 19 kts 95°
2026-05-08 07:58 53.42264 -6.26258 215 ft 20 kts 95°
2026-05-08 07:59 53.42250 -6.26010 219 ft 23 kts 95°
2026-05-08 07:59 53.42236 -6.25753 219 ft 21 kts 95°
2026-05-08 07:59 53.42222 -6.25495 211 ft 21 kts 95°
2026-05-08 07:59 53.42209 -6.25249 211 ft 19 kts 95°
2026-05-08 08:00 53.42199 -6.25062 211 ft 17 kts 95°
2026-05-08 08:00 53.42189 -6.24879 211 ft 14 kts 94°
2026-05-08 08:00 53.42230 -6.24772 214 ft 13 kts 355°
2026-05-08 08:00 53.42321 -6.24830 212 ft 16 kts 335°
2026-05-08 08:01 53.42429 -6.24912 214 ft 19 kts 335°
2026-05-08 08:01 53.42541 -6.24940 211 ft 14 kts 41°
2026-05-08 08:01 53.42519 -6.24817 211 ft 14 kts 151°
2026-05-08 08:01 53.42499 -6.24728 211 ft 8 kts 64°
2026-05-08 08:02 53.42526 -6.24675 211 ft 3 kts 48°
2026-05-08 08:02 53.42527 -6.24674 211 ft 0 kts 48°